DE17H KJFK-CYYZ

Flight info

Callsign DE17H
Flight time N/A
Altitude 30000
Route GAYEL Q818 WOZEE LINNG3
Aircraft C750/M-SBDE3FGHRWXY/S

Departure

Time 2026-05-08 23:52
Airport John F. Kennedy International Airport (KJFK)

Arrival

Time N/A
Airport Toronto Pearson International Airport (CYYZ)
Time Latitude Longitude Altitude Speed Heading
2026-05-08 23:16 40.65186 -73.76948 12 ft 0 kts 121°
2026-05-08 23:32 40.65185 -73.76948 12 ft 0 kts 121°
2026-05-08 23:32 40.65186 -73.76949 12 ft 0 kts 117°
2026-05-08 23:33 40.65186 -73.76952 12 ft 0 kts 68°
2026-05-08 23:33 40.65180 -73.76966 12 ft 2 kts 60°
2026-05-08 23:33 40.65173 -73.76984 12 ft 2 kts 61°
2026-05-08 23:33 40.65165 -73.77002 12 ft 2 kts 61°
2026-05-08 23:34 40.65158 -73.77020 12 ft 2 kts 61°
2026-05-08 23:34 40.65150 -73.77038 12 ft 2 kts 61°
2026-05-08 23:34 40.65143 -73.77055 12 ft 2 kts 61°
2026-05-08 23:34 40.65136 -73.77071 12 ft 2 kts 61°
2026-05-08 23:35 40.65129 -73.77089 12 ft 2 kts 61°
2026-05-08 23:35 40.65123 -73.77103 12 ft 0 kts 62°
2026-05-08 23:35 40.65123 -73.77106 12 ft 0 kts 108°
2026-05-08 23:35 40.65125 -73.77110 13 ft 0 kts 155°
2026-05-08 23:36 40.65128 -73.77110 12 ft 0 kts 200°
2026-05-08 23:36 40.65132 -73.77106 12 ft 0 kts 210°
2026-05-08 23:41 40.65129 -73.77109 12 ft 1 kts 211°
2026-05-08 23:41 40.65120 -73.77116 12 ft 2 kts 212°
2026-05-08 23:42 40.65106 -73.77126 12 ft 2 kts 206°
2026-05-08 23:42 40.65086 -73.77141 12 ft 3 kts 213°
2026-05-08 23:42 40.65063 -73.77151 12 ft 3 kts 154°
2026-05-08 23:42 40.65048 -73.77132 12 ft 0 kts 126°
2026-05-08 23:46 40.65046 -73.77127 12 ft 3 kts 123°
2026-05-08 23:46 40.65022 -73.77074 12 ft 9 kts 117°
2026-05-08 23:46 40.64976 -73.76973 12 ft 16 kts 120°
2026-05-08 23:47 40.64909 -73.76819 12 ft 22 kts 121°
2026-05-08 23:47 40.64919 -73.76667 12 ft 20 kts 29°
2026-05-08 23:47 40.65057 -73.76562 12 ft 18 kts 29°
2026-05-08 23:47 40.65094 -73.76459 12 ft 15 kts 117°
2026-05-08 23:48 40.65091 -73.76450 12 ft 0 kts 120°
2026-05-08 23:49 40.65089 -73.76446 12 ft 1 kts 120°
2026-05-08 23:49 40.65075 -73.76416 12 ft 7 kts 122°
2026-05-08 23:50 40.65071 -73.76407 12 ft 0 kts 123°
2026-05-08 23:50 40.65064 -73.76389 12 ft 5 kts 120°
2026-05-08 23:50 40.65022 -73.76351 12 ft 9 kts 199°
2026-05-08 23:50 40.64994 -73.76377 12 ft 0 kts 211°
2026-05-08 23:51 40.64949 -73.76411 12 ft 32 kts 208°
2026-05-08 23:51 40.64431 -73.76820 12 ft 136 kts 210°
2026-05-08 23:52 40.63461 -73.77623 365 ft 189 kts 218°
2026-05-08 23:52 40.62342 -73.78790 903 ft 227 kts 232°
2026-05-08 23:52 40.61798 -73.80978 1454 ft 285 kts 271°
2026-05-08 23:52 40.62377 -73.83675 2084 ft 336 kts 296°
2026-05-08 23:53 40.63216 -73.86706 2933 ft 370 kts 280°
2026-05-08 23:53 40.63069 -73.90059 4450 ft 378 kts 255°
2026-05-08 23:53 40.61834 -73.93034 6186 ft 381 kts 232°
2026-05-08 23:53 40.59888 -73.95260 6582 ft 380 kts 221°
2026-05-08 23:54 40.57399 -73.96555 5892 ft 399 kts 194°
2026-05-08 23:54 40.54645 -73.96396 5957 ft 399 kts 170°
2026-05-08 23:54 40.52164 -73.94871 5971 ft 381 kts 147°
2026-05-08 23:55 40.48880 -73.90608 5953 ft 290 kts 137°
2026-05-08 23:55 40.47869 -73.88521 5971 ft 266 kts 105°
2026-05-08 23:55 40.47965 -73.86261 5997 ft 239 kts 61°
2026-05-08 23:55 40.48804 -73.84621 6330 ft 196 kts 47°
2026-05-08 23:56 40.49584 -73.83205 6839 ft 197 kts 47°
2026-05-08 23:56 40.50407 -73.81715 7434 ft 212 kts 47°
2026-05-08 23:56 40.51299 -73.80096 8036 ft 227 kts 47°
2026-05-08 23:56 40.52258 -73.78366 8640 ft 241 kts 47°
2026-05-08 23:57 40.53276 -73.76535 9241 ft 257 kts 47°
2026-05-08 23:57 40.54376 -73.74564 9864 ft 285 kts 47°
2026-05-08 23:57 40.55849 -73.72732 10490 ft 298 kts 27°
2026-05-08 23:57 40.57589 -73.71123 11096 ft 319 kts 28°
2026-05-08 23:58 40.59442 -73.69409 11847 ft 331 kts 27°
2026-05-08 23:58 40.61339 -73.67623 12697 ft 337 kts 27°
2026-05-08 23:58 40.63226 -73.65813 13534 ft 341 kts 27°
2026-05-08 23:58 40.65110 -73.63946 14361 ft 343 kts 27°
2026-05-08 23:59 40.67020 -73.62051 15194 ft 344 kts 27°
2026-05-08 23:59 40.68910 -73.60172 16013 ft 344 kts 27°
2026-05-08 23:59 40.70807 -73.58285 16809 ft 342 kts 27°
2026-05-08 23:59 40.72754 -73.56360 16976 ft 358 kts 27°
2026-05-09 00:00 40.74797 -73.54374 16983 ft 376 kts 27°
2026-05-09 00:00 40.76936 -73.52313 16987 ft 390 kts 27°
2026-05-09 00:00 40.79166 -73.50188 16987 ft 401 kts 27°
2026-05-09 00:00 40.81582 -73.48379 16964 ft 394 kts 10°
2026-05-09 00:01 40.84210 -73.47955 16983 ft 378 kts 347°
2026-05-09 00:01 40.86726 -73.48891 17008 ft 371 kts 332°
2026-05-09 00:01 40.89123 -73.50145 16974 ft 377 kts 333°
2026-05-09 00:01 40.91590 -73.51437 16963 ft 380 kts 332°
2026-05-09 00:02 40.94011 -73.52721 16961 ft 375 kts 332°
2026-05-09 00:02 40.96359 -73.53999 16958 ft 355 kts 328°
2026-05-09 00:02 40.98213 -73.55962 16953 ft 331 kts 306°
2026-05-09 00:02 40.99506 -73.58412 16953 ft 320 kts 302°
2026-05-09 00:03 41.00746 -73.60787 16954 ft 312 kts 302°
2026-05-09 00:03 41.01964 -73.63145 16951 ft 306 kts 302°
2026-05-09 00:03 41.03165 -73.65455 16956 ft 302 kts 302°
2026-05-09 00:03 41.04345 -73.67712 16956 ft 298 kts 302°
2026-05-09 00:04 41.05513 -73.69948 16958 ft 295 kts 302°
2026-05-09 00:04 41.06683 -73.72172 16961 ft 293 kts 302°
2026-05-09 00:04 41.07845 -73.74380 16957 ft 291 kts 302°
2026-05-09 00:04 41.08997 -73.76576 16956 ft 290 kts 302°
2026-05-09 00:05 41.10125 -73.78728 16956 ft 289 kts 302°
2026-05-09 00:05 41.11287 -73.80945 16967 ft 287 kts 302°
2026-05-09 00:05 41.12423 -73.83120 16963 ft 287 kts 302°
2026-05-09 00:05 41.13556 -73.85279 16972 ft 287 kts 302°
2026-05-09 00:06 41.14691 -73.87448 16978 ft 287 kts 302°
2026-05-09 00:06 41.15834 -73.89617 17171 ft 280 kts 302°
2026-05-09 00:06 41.16916 -73.91656 17670 ft 266 kts 302°
2026-05-09 00:06 41.17956 -73.93618 18134 ft 255 kts 302°
2026-05-09 00:07 41.18942 -73.95489 18610 ft 245 kts 302°
2026-05-09 00:07 41.19906 -73.97302 19104 ft 235 kts 303°
2026-05-09 00:07 41.20826 -73.99026 19596 ft 227 kts 302°
2026-05-09 00:07 41.21722 -74.00693 20085 ft 219 kts 302°
2026-05-09 00:08 41.22600 -74.02306 20574 ft 211 kts 302°
2026-05-09 00:08 41.23450 -74.03849 21046 ft 204 kts 302°
2026-05-09 00:08 41.24269 -74.05315 21507 ft 197 kts 303°
2026-05-09 00:08 41.25073 -74.06735 22003 ft 190 kts 302°
2026-05-09 00:09 41.25864 -74.08116 22494 ft 183 kts 302°
2026-05-09 00:09 41.26625 -74.09412 22972 ft 177 kts 302°
2026-05-09 00:09 41.27405 -74.10620 23457 ft 171 kts 306°
2026-05-09 00:09 41.28212 -74.11729 23940 ft 164 kts 307°
2026-05-09 00:10 41.29001 -74.12770 24427 ft 157 kts 306°
2026-05-09 00:10 41.29760 -74.13741 24907 ft 149 kts 307°
2026-05-09 00:10 41.30486 -74.14662 25385 ft 140 kts 307°
2026-05-09 00:10 41.31165 -74.15496 25851 ft 131 kts 306°
2026-05-09 00:11 41.31837 -74.16268 26315 ft 128 kts 306°
2026-05-09 00:11 41.32525 -74.17014 26835 ft 127 kts 307°
2026-05-09 00:11 41.33194 -74.17728 27337 ft 124 kts 307°
2026-05-09 00:11 41.33944 -74.18430 27509 ft 144 kts 310°
2026-05-09 00:12 41.34723 -74.19323 27777 ft 150 kts 306°
2026-05-09 00:12 41.35548 -74.20290 28014 ft 165 kts 307°
2026-05-09 00:12 41.36438 -74.21343 28253 ft 178 kts 306°
2026-05-09 00:12 41.37398 -74.22483 28485 ft 192 kts 307°
2026-05-09 00:13 41.38418 -74.23718 28719 ft 204 kts 307°
2026-05-09 00:13 41.39328 -74.25153 28938 ft 207 kts 295°
2026-05-09 00:13 41.40026 -74.26880 29165 ft 216 kts 292°
2026-05-09 00:13 41.40704 -74.28710 29371 ft 226 kts 291°
2026-05-09 00:14 41.41422 -74.30653 29582 ft 236 kts 291°
2026-05-09 00:14 41.42086 -74.32651 29772 ft 242 kts 282°
2026-05-09 00:14 41.42289 -74.34911 29962 ft 249 kts 276°
2026-05-09 00:14 41.42418 -74.37271 29966 ft 262 kts 276°
2026-05-09 00:15 41.42749 -74.39702 29977 ft 273 kts 285°
2026-05-09 00:15 41.43385 -74.42131 29976 ft 285 kts 288°
2026-05-09 00:15 41.44155 -74.44589 29969 ft 295 kts 290°
2026-05-09 00:16 41.45940 -74.49657 29957 ft 309 kts 292°
2026-05-09 00:16 41.47860 -74.54876 29950 ft 319 kts 293°
2026-05-09 00:17 41.49855 -74.60213 29952 ft 327 kts 293°
2026-05-09 00:17 41.51908 -74.65724 29955 ft 333 kts 292°
2026-05-09 00:18 41.53970 -74.71270 29964 ft 338 kts 293°
2026-05-09 00:18 41.56077 -74.76924 29961 ft 342 kts 292°
2026-05-09 00:19 41.58188 -74.82630 29961 ft 345 kts 293°
2026-05-09 00:19 41.60321 -74.88377 29956 ft 347 kts 293°
2026-05-09 00:20 41.62461 -74.94178 29957 ft 349 kts 293°
2026-05-09 00:20 41.64601 -75.00001 29949 ft 350 kts 293°
2026-05-09 00:21 41.66380 -75.04826 29943 ft 350 kts 292°
2026-05-09 00:21 41.68889 -75.11657 29940 ft 351 kts 293°
2026-05-09 00:22 41.71032 -75.17523 29941 ft 352 kts 293°
2026-05-09 00:22 41.73176 -75.23382 29943 ft 352 kts 293°
2026-05-09 00:23 41.75311 -75.29245 29942 ft 352 kts 294°
2026-05-09 00:23 41.77455 -75.35146 29939 ft 352 kts 293°
2026-05-09 00:24 41.79587 -75.40998 29933 ft 352 kts 293°
2026-05-09 00:24 41.81729 -75.46925 29932 ft 353 kts 294°
2026-05-09 00:25 41.83848 -75.52786 29924 ft 353 kts 294°
2026-05-09 00:25 41.85995 -75.58733 29919 ft 353 kts 294°
2026-05-09 00:26 41.88123 -75.64636 29927 ft 352 kts 293°
2026-05-09 00:26 41.90248 -75.70550 29944 ft 353 kts 293°
2026-05-09 00:27 41.92377 -75.76482 29943 ft 354 kts 292°
2026-05-09 00:27 41.94502 -75.82441 29944 ft 355 kts 293°
2026-05-09 00:28 41.96623 -75.88376 29943 ft 355 kts 293°
2026-05-09 00:28 41.98763 -75.94375 29942 ft 356 kts 292°
2026-05-09 00:29 42.00890 -76.00364 29932 ft 356 kts 293°
2026-05-09 00:29 42.03027 -76.06363 29931 ft 356 kts 292°
2026-05-09 00:30 42.05126 -76.12309 29925 ft 355 kts 292°
2026-05-09 00:30 42.07249 -76.18317 29928 ft 355 kts 293°
2026-05-09 00:31 42.09364 -76.24312 29929 ft 354 kts 292°
2026-05-09 00:31 42.11453 -76.30263 29930 ft 354 kts 293°
2026-05-09 00:32 42.13562 -76.36263 29924 ft 353 kts 292°
2026-05-09 00:32 42.15653 -76.42239 29926 ft 353 kts 293°
2026-05-09 00:33 42.17746 -76.48209 29926 ft 353 kts 292°
2026-05-09 00:33 42.19824 -76.54172 29924 ft 352 kts 293°
2026-05-09 00:34 42.21888 -76.60107 29920 ft 352 kts 292°
2026-05-09 00:34 42.23963 -76.66093 29928 ft 351 kts 292°
2026-05-09 00:35 42.26029 -76.72031 29936 ft 352 kts 292°
2026-05-09 00:35 42.28112 -76.78059 29928 ft 352 kts 292°
2026-05-09 00:36 42.30181 -76.84056 29925 ft 352 kts 292°
2026-05-09 00:36 42.32247 -76.90062 29925 ft 352 kts 292°
2026-05-09 00:37 42.34303 -76.96050 29923 ft 352 kts 292°
2026-05-09 00:37 42.36351 -77.02010 29923 ft 352 kts 292°
2026-05-09 00:38 42.38401 -77.08004 29923 ft 351 kts 292°
2026-05-09 00:38 42.40436 -77.13965 29922 ft 351 kts 291°
2026-05-09 00:39 42.42481 -77.19968 29915 ft 351 kts 292°
2026-05-09 00:39 42.44510 -77.25944 29918 ft 350 kts 292°
2026-05-09 00:39 42.45528 -77.28946 29417 ft 362 kts 291°
2026-05-09 00:40 42.46582 -77.32058 28639 ft 367 kts 292°
2026-05-09 00:40 42.47639 -77.35193 27983 ft 364 kts 292°
2026-05-09 00:40 42.48676 -77.38243 27913 ft 350 kts 292°
2026-05-09 00:41 42.50637 -77.44036 27898 ft 327 kts 292°
2026-05-09 00:41 42.51570 -77.46804 27895 ft 318 kts 291°
2026-05-09 00:41 42.52470 -77.49477 27899 ft 311 kts 291°
2026-05-09 00:41 42.53351 -77.52100 27896 ft 305 kts 292°
2026-05-09 00:42 42.54227 -77.54713 27962 ft 302 kts 291°
2026-05-09 00:42 42.55100 -77.57323 27931 ft 313 kts 291°
2026-05-09 00:42 42.56023 -77.60076 27922 ft 323 kts 291°
2026-05-09 00:42 42.56966 -77.62888 27924 ft 331 kts 291°
2026-05-09 00:43 42.57923 -77.65752 27925 ft 339 kts 291°
2026-05-09 00:43 42.58904 -77.68697 27933 ft 347 kts 291°
2026-05-09 00:43 42.59915 -77.71710 27931 ft 353 kts 291°
2026-05-09 00:43 42.60936 -77.74763 27932 ft 359 kts 291°
2026-05-09 00:44 42.61969 -77.77869 27935 ft 365 kts 291°
2026-05-09 00:44 42.63018 -77.81021 27919 ft 370 kts 291°
2026-05-09 00:44 42.64085 -77.84225 27923 ft 374 kts 291°
2026-05-09 00:44 42.65161 -77.87470 27917 ft 377 kts 291°
2026-05-09 00:45 42.66246 -77.90740 27923 ft 381 kts 291°
2026-05-09 00:45 42.67339 -77.94040 27917 ft 384 kts 291°
2026-05-09 00:45 42.68427 -77.97320 27913 ft 386 kts 291°
2026-05-09 00:45 42.69535 -78.00672 27913 ft 388 kts 291°
2026-05-09 00:46 42.70642 -78.04024 27910 ft 391 kts 291°
2026-05-09 00:46 42.71749 -78.07387 27912 ft 392 kts 291°
2026-05-09 00:46 42.72868 -78.10781 27908 ft 394 kts 291°
2026-05-09 00:46 42.73988 -78.14182 27905 ft 395 kts 291°
2026-05-09 00:47 42.75106 -78.17590 27903 ft 396 kts 291°
2026-05-09 00:47 42.76232 -78.21036 27896 ft 397 kts 291°
2026-05-09 00:47 42.77364 -78.24470 27901 ft 398 kts 291°
2026-05-09 00:47 42.78491 -78.27932 27898 ft 399 kts 291°
2026-05-09 00:48 42.79612 -78.31355 27898 ft 399 kts 291°
2026-05-09 00:48 42.80736 -78.34804 27897 ft 400 kts 291°
2026-05-09 00:48 42.81858 -78.38239 27893 ft 400 kts 291°
2026-05-09 00:48 42.82990 -78.41727 27898 ft 401 kts 291°
2026-05-09 00:49 42.84115 -78.45173 27895 ft 401 kts 291°
2026-05-09 00:49 42.85243 -78.48658 27890 ft 401 kts 291°
2026-05-09 00:49 42.86370 -78.52126 27897 ft 402 kts 291°
2026-05-09 00:49 42.87488 -78.55585 27898 ft 402 kts 291°
2026-05-09 00:50 42.88621 -78.59077 27903 ft 400 kts 291°
2026-05-09 00:50 42.89710 -78.62446 27884 ft 377 kts 291°
2026-05-09 00:50 42.90746 -78.65644 27881 ft 357 kts 290°
2026-05-09 00:50 42.91720 -78.68681 27335 ft 355 kts 290°
2026-05-09 00:51 42.92691 -78.71684 27506 ft 334 kts 290°
2026-05-09 00:51 42.93735 -78.74504 26738 ft 346 kts 300°
2026-05-09 00:51 42.95285 -78.76989 25852 ft 331 kts 304°
2026-05-09 00:51 42.96671 -78.79297 25022 ft 306 kts 303°
2026-05-09 00:52 42.97992 -78.81477 24258 ft 291 kts 303°
2026-05-09 00:52 42.99247 -78.83570 23524 ft 289 kts 303°
2026-05-09 00:52 43.00516 -78.85686 22740 ft 287 kts 304°
2026-05-09 00:52 43.01776 -78.87775 21960 ft 286 kts 304°
2026-05-09 00:53 43.03021 -78.89844 21187 ft 285 kts 304°
2026-05-09 00:53 43.04275 -78.91933 20405 ft 284 kts 304°
2026-05-09 00:53 43.05518 -78.93996 19635 ft 282 kts 304°
2026-05-09 00:53 43.06744 -78.96041 18867 ft 281 kts 304°
2026-05-09 00:54 43.07977 -78.98096 18095 ft 280 kts 305°
2026-05-09 00:54 43.09020 -79.00262 17299 ft 274 kts 288°
2026-05-09 00:54 43.09043 -79.02731 16951 ft 259 kts 256°
2026-05-09 00:54 43.08366 -79.04930 16899 ft 240 kts 250°
2026-05-09 00:55 43.07692 -79.06906 16880 ft 221 kts 250°
2026-05-09 00:55 43.07057 -79.08720 16874 ft 204 kts 250°
2026-05-09 00:55 43.06459 -79.10397 16869 ft 188 kts 250°
2026-05-09 00:55 43.05902 -79.11934 16864 ft 174 kts 250°
2026-05-09 00:56 43.05379 -79.13351 16865 ft 162 kts 250°
2026-05-09 00:56 43.04871 -79.14709 16883 ft 159 kts 250°
2026-05-09 00:56 43.04372 -79.16033 16885 ft 156 kts 250°
2026-05-09 00:56 43.03872 -79.17343 16885 ft 154 kts 251°
2026-05-09 00:57 43.03748 -79.18693 16889 ft 143 kts 292°
2026-05-09 00:57 43.04514 -79.19569 16921 ft 156 kts 328°
2026-05-09 00:57 43.05581 -79.19976 16901 ft 160 kts 333°
2026-05-09 00:57 43.06713 -79.20363 16611 ft 174 kts 333°
2026-05-09 00:58 43.07847 -79.20747 16692 ft 168 kts 333°
2026-05-09 00:58 43.08977 -79.21146 16694 ft 167 kts 333°
2026-05-09 00:58 43.10126 -79.21483 16706 ft 168 kts 336°
2026-05-09 00:58 43.11290 -79.21778 16707 ft 168 kts 336°
2026-05-09 00:59 43.12434 -79.22072 16705 ft 168 kts 336°
2026-05-09 00:59 43.13576 -79.22362 16706 ft 167 kts 336°
2026-05-09 00:59 43.14796 -79.22729 16127 ft 196 kts 333°
2026-05-09 00:59 43.16148 -79.23368 15313 ft 229 kts 330°
2026-05-09 01:00 43.17713 -79.24219 14046 ft 260 kts 330°
2026-05-09 01:00 43.19425 -79.25213 12830 ft 279 kts 330°
2026-05-09 01:00 43.21215 -79.26297 11602 ft 290 kts 330°
2026-05-09 01:00 43.23002 -79.27418 11016 ft 276 kts 330°
2026-05-09 01:01 43.24658 -79.28455 10927 ft 251 kts 330°
2026-05-09 01:01 43.25998 -79.29771 10939 ft 223 kts 311°
2026-05-09 01:01 43.27058 -79.31183 10913 ft 209 kts 313°
2026-05-09 01:01 43.28088 -79.32535 10921 ft 199 kts 311°
2026-05-09 01:02 43.29082 -79.33868 10647 ft 206 kts 312°
2026-05-09 01:02 43.30129 -79.35262 10159 ft 218 kts 317°
2026-05-09 01:02 43.31486 -79.36287 9695 ft 231 kts 333°
2026-05-09 01:02 43.32966 -79.37201 9214 ft 237 kts 330°
2026-05-09 01:03 43.34477 -79.38176 8717 ft 242 kts 331°
2026-05-09 01:03 43.36015 -79.39159 8198 ft 245 kts 331°
2026-05-09 01:03 43.37548 -79.40139 7961 ft 237 kts 332°
2026-05-09 01:03 43.38992 -79.41061 7920 ft 225 kts 331°
2026-05-09 01:04 43.40380 -79.41951 7922 ft 214 kts 331°
2026-05-09 01:04 43.41695 -79.42796 7909 ft 205 kts 331°
2026-05-09 01:04 43.42957 -79.43609 7908 ft 198 kts 330°
2026-05-09 01:04 43.44194 -79.44405 7912 ft 192 kts 330°
2026-05-09 01:05 43.45392 -79.45174 7912 ft 188 kts 330°
2026-05-09 01:05 43.46558 -79.45927 7923 ft 184 kts 330°
2026-05-09 01:05 43.48844 -79.47405 7924 ft 179 kts 330°
2026-05-09 01:06 43.49972 -79.48132 7921 ft 178 kts 330°
2026-05-09 01:06 43.51088 -79.48854 7925 ft 176 kts 330°
2026-05-09 01:06 43.52200 -79.49573 7910 ft 175 kts 330°
2026-05-09 01:06 43.53292 -79.50276 7911 ft 174 kts 330°
2026-05-09 01:07 43.54391 -79.50987 7913 ft 173 kts 330°
2026-05-09 01:07 43.55484 -79.51687 7916 ft 172 kts 330°
2026-05-09 01:07 43.56562 -79.52379 7916 ft 172 kts 330°
2026-05-09 01:07 43.57642 -79.53074 7922 ft 171 kts 330°
2026-05-09 01:08 43.58787 -79.53787 7512 ft 195 kts 338°
2026-05-09 01:08 43.60210 -79.53687 7039 ft 225 kts 21°
2026-05-09 01:08 43.61425 -79.52176 6589 ft 245 kts 52°
2026-05-09 01:08 43.62489 -79.50336 6104 ft 253 kts 45°
2026-05-09 01:09 43.63699 -79.48531 5596 ft 260 kts 45°
2026-05-09 01:09 43.64951 -79.46691 5073 ft 266 kts 45°
2026-05-09 01:09 43.66230 -79.44822 4546 ft 269 kts 45°
2026-05-09 01:09 43.67506 -79.42962 4039 ft 269 kts 46°
2026-05-09 01:10 43.68762 -79.41121 3908 ft 256 kts 46°
2026-05-09 01:10 43.69948 -79.39383 3901 ft 239 kts 46°
2026-05-09 01:10 43.70997 -79.37844 3870 ft 206 kts 46°
2026-05-09 01:10 43.71923 -79.36486 3873 ft 184 kts 46°
2026-05-09 01:11 43.72773 -79.35242 3879 ft 170 kts 46°
2026-05-09 01:11 43.73563 -79.34087 3912 ft 164 kts 46°
2026-05-09 01:11 43.74343 -79.32948 3912 ft 163 kts 46°
2026-05-09 01:11 43.75123 -79.31811 3910 ft 163 kts 46°
2026-05-09 01:12 43.75908 -79.30662 3912 ft 163 kts 46°
2026-05-09 01:12 43.76682 -79.29527 3918 ft 163 kts 46°
2026-05-09 01:12 43.77464 -79.28379 3913 ft 163 kts 46°
2026-05-09 01:12 43.78246 -79.27231 3880 ft 166 kts 46°
2026-05-09 01:13 43.79164 -79.26282 3769 ft 169 kts 17°
2026-05-09 01:13 43.80389 -79.26300 3204 ft 187 kts 334°
2026-05-09 01:13 43.81433 -79.27249 2959 ft 172 kts 320°
2026-05-09 01:13 43.82362 -79.28198 2891 ft 158 kts 320°
2026-05-09 01:14 43.83186 -79.29098 2873 ft 144 kts 306°
2026-05-09 01:14 43.83755 -79.30145 2886 ft 134 kts 304°
2026-05-09 01:14 43.84246 -79.31188 2883 ft 124 kts 279°
2026-05-09 01:14 43.84266 -79.32314 2899 ft 114 kts 261°
2026-05-09 01:15 43.84194 -79.33367 2901 ft 111 kts 260°
2026-05-09 01:15 43.84121 -79.34424 2900 ft 109 kts 261°
2026-05-09 01:15 43.84047 -79.35418 2903 ft 107 kts 259°
2026-05-09 01:15 43.83972 -79.36434 2907 ft 106 kts 261°
2026-05-09 01:16 43.83884 -79.37488 2931 ft 115 kts 252°
2026-05-09 01:16 43.83486 -79.38507 2961 ft 129 kts 232°
2026-05-09 01:16 43.82924 -79.39561 2950 ft 142 kts 232°
2026-05-09 01:17 43.81665 -79.41888 2930 ft 156 kts 232°